Tracking 23612 objects as of 17-Sep-2021
HD Live streaming from Space Station
objects crossing your sky now
Track INSPIRATION-4

SL-14 R/B

Track SL-14 R/B now!
10-day predictions
SL-14 R/B is classified as:


NORAD ID: 21423
Int'l Code: 1991-042B
Perigee: 625.0 km
Apogee: 648.9 km
Inclination: 82.5 °
Period: 97.3 minutes
Semi major axis: 7007 km
RCS: 4.7234 m2 (large)
Launch date: June 13, 1991
Source: Commonwealth of Independent States (former USSR) (CIS)
Launch site: PLESETSK MISSILE AND SPACE COMPLEX (PKMTR)

Note: This is a ROCKET BODY
aabbcc
Your satellite tracking list
Your tracking list is empty




NASA's NSSDC Master Catalog

Two Line Element Set (TLE):
1 21423U 91042B   21259.40827485  .00000081  00000-0  77017-5 0  9991
2 21423  82.4935 310.7509 0017022 200.8053 159.2469 14.79840740611097
Source of the keplerian elements: AFSPC